Location: Gilevgi
(36.8751°N, 30.0581°E)
Time: 23:10:29
(UTC+00:00)

EXPRESS MD2 - Visible Passes

Search period start: 12 March 2026 00:00
Search period end: 22 March 2026 00:00
Orbit: 258 x 2783 km, 49.8° (Epoch: 12 March)

Date Brightness Start Highest point End Pass type
(mag) Time Alt. Az. Time Alt. Az. Time Alt. Az.
12 Mar 7.1 17:56:10 10° WNW 18:11:55 52° N 18:21:37 27° ENE visible
12 Mar 6.5 20:01:47 10° NW 20:18:02 74° N 20:18:02 74° N visible
12 Mar 7.5 22:07:16 10° WNW 22:14:28 30° WNW 22:14:28 30° WNW visible
13 Mar 7.2 17:10:06 10° WNW 17:25:11 51° N 17:38:40 16° ENE visible
13 Mar 6.5 19:15:43 10° NW 19:32:37 66° NNE 19:35:05 61° ENE visible
13 Mar 7.1 21:20:56 10° NW 21:31:30 44° WNW 21:31:30 44° WNW visible
14 Mar 7.2 16:24:02 10° WNW 16:38:22 51° N 16:54:26 10° ENE visible
14 Mar 6.8 18:29:36 10° WNW 18:46:06 60° NNE 18:52:05 43° ENE visible
14 Mar 6.6 20:34:41 10° NW 20:48:30 65° WNW 20:48:30 65° WNW visible
14 Mar 7.9 22:41:21 10° WNW 22:44:55 17° WNW 22:44:55 17° WNW visible
15 Mar 7.0 17:43:28 10° WNW 17:59:21 55° NNE 18:09:03 28° E visible
15 Mar 6.3 19:48:29 10° NW 20:05:27 88° N 20:05:27 88° N visible
15 Mar 7.5 21:54:13 10° WNW 22:01:52 28° W 22:01:52 28° W visible
16 Mar 7.1 16:57:18 10° WNW 17:12:26 52° N 17:25:58 16° E visible
16 Mar 6.4 19:02:17 10° NW 19:19:18 77° NNE 19:22:23 65° E visible
16 Mar 7.1 21:07:27 10° WNW 21:18:47 42° W 21:18:47 42° W visible
17 Mar 7.2 16:11:06 10° WNW 16:25:24 51° N 16:41:26 10° ENE visible
17 Mar 6.7 18:16:05 10° NW 18:32:43 68° NNE 18:39:16 43° E visible
17 Mar 6.6 20:20:53 10° NW 20:35:41 60° WSW 20:35:41 60° WSW visible
17 Mar 8.0 22:29:05 10° WNW 22:32:06 14° W 22:32:06 14° W visible
18 Mar 6.9 17:29:50 10° WNW 17:45:52 61° NNE 17:56:09 27° E visible
18 Mar 6.4 19:34:26 10° NW 19:51:19 76° SW 19:52:34 73° S visible
18 Mar 7.6 21:40:54 10° WNW 21:48:58 24° W 21:48:58 24° W visible
19 Mar 7.0 16:43:36 10° WNW 16:58:49 56° NNE 17:13:01 15° E visible
19 Mar 6.4 18:48:03 10° NW 19:05:00 89° SW 19:09:25 58° SE visible
19 Mar 7.2 20:53:29 10° WNW 21:05:49 36° WSW 21:05:49 36° WSW visible
20 Mar 6.6 18:01:42 10° NW 18:18:21 80° NE 18:26:16 39° ESE visible
20 Mar 6.8 20:06:29 10° WNW 20:22:02 49° SW 20:22:41 48° SW visible
21 Mar 6.8 17:15:22 10° NW 17:31:26 70° NNE 17:43:07 23° ESE visible
21 Mar 6.6 19:19:43 10° NW 19:36:02 61° SW 19:39:32 53° S visible
21 Mar 7.8 21:27:43 10° WNW 21:35:56 18° WSW 21:35:56 18° WSW visible
